Regional Weather Roundup
Issued by NWS

Home | Current Version | Previous Version | Text Only | Print | Product List | Glossary Off
Versions: 1 2 3 4 5 6 7 8 9 10 11 12 13 14 15 16 17 18 19 20 21 22 23 24 25 26 27 28 29 30 31 32 33 34 35 36 37 38 39 40 41 42 43 44 45 46 47 48 49 50

000
ASUS43 KMKX 181100
RWRWI

WISCONSIN REGIONAL WEATHER ROUNDUP
NATIONAL WEATHER SERVICE MILWAUKEE/SULLIVAN WI
600 AM CDT THU SEP 18 2014

NOTE: "FAIR" INDICATES FEW OR NO CLOUDS BELOW 12,000 FEET WITH NO
SIGNIFICANT WEATHER AND/OR OBSTRUCTIONS TO VISIBILITY.

WIZ001-002-006>008-014>016-023>028-181200-
NORTHWEST WISCONSIN

CITY           SKY/WX    TMP DP  RH WIND       PRES   REMARKS
SUPERIOR ARPT  CLOUDY    43  38  82 E7        30.16R
ASHLAND        CLOUDY    43  40  89 NE6       30.17S
HAYWARD        CLOUDY    44  43  96 NE5       30.13S
SIREN          CLOUDY    45  42  91 E5        30.10F
RICE LAKE      CLOUDY    46  45  95 E3        30.12S
LADYSMITH      CLOUDY    48  46  92 E6        30.14R
EAU CLAIRE     PTCLDY    47  46  97 NE6       30.09S
MENOMONIE      CLOUDY    49  47  94 NE3       30.09S
NEW RICHMOND   CLEAR     45  45  99 E3        30.08F
OSCEOLA        CLEAR     46  46 100 NE3       30.11S
$$

WIZ003>005-009-010-017-018-181200-
NORTH CENTRAL WISCONSIN

CITY           SKY/WX    TMP DP  RH WIND       PRES   REMARKS
WOODRUFF       CLOUDY    42  39  91 CALM      30.14S
RHINELANDER    CLOUDY    41  40  96 E9        30.15R
EAGLE RIVER    CLOUDY    38  37  97 E7        30.15R WCI  33
LAND O LAKES   CLOUDY    37  36  93 SE3       30.17R
PHILLIPS       CLOUDY    45  42  91 SE6       30.13R
TOMAHAWK       CLOUDY    45  42  89 CALM      30.14R
MEDFORD        CLOUDY    46  45  95 SE5       30.12R
MERRILL        CLOUDY    45  43  91 SE8       30.13S
$$

WIZ029-030-035-036-043>047-181200-
CENTRAL WISCONSIN

CITY           SKY/WX    TMP DP  RH WIND       PRES   REMARKS
WAUSAU         CLOUDY    45  42  89 E8        30.13S
MOSINEE        CLOUDY    45  45 100 E7        30.14S
MARSHFIELD     CLOUDY    45  43  93 E9        30.12R
STEVENS POINT  CLOUDY    42  40  90 E10       30.14R
WAUPACA        CLOUDY    47  44  90 NE3       30.15S
WAUTOMA        NOT AVBL
WISC RAPIDS    CLOUDY    47  44  90 E7        30.14R
CAMP DOUGLAS   CLOUDY    50  50 100 E6        30.11S FOG
$$

WIZ011>013-019>022-031-037>040-048>050-181200-
NORTHEAST WISCONSIN

CITY           SKY/WX    TMP DP  RH WIND       PRES   REMARKS
ANTIGO         CLOUDY    41  40  97 E6        30.15S
STURGEON BAY   CLOUDY    45  36  70 NE9       30.17R
GREEN BAY      CLOUDY    44  39  82 N12       30.16R
MANITOWOC      NOT AVBL
APPLETON       CLOUDY    45  39  81 NE10      30.15R
CLINTONVILLE   CLOUDY    43  37  81 E8        30.16R
OSHKOSH        CLOUDY    49  46  90 NE10      30.13S
$$

WIZ032>034-041-042-053>061-181200-
SOUTHWEST WISCONSIN

CITY           SKY/WX    TMP DP  RH WIND       PRES   REMARKS
LA CROSSE      PTCLDY    49  48  97 CALM      30.08R FOG
SPARTA         CLOUDY    49  49  99 E8        30.10S FOG
VIROQUA        FAIR      48  48 100 E7        30.08R
BOSCOBEL       FOG       50  48  93 NE5       30.09R VSB 1/4
PRAIRIE DU CHI FOG       47  46  97 CALM      30.07R VSB 1
PLATTEVILLE    FAIR      49  48  94 CALM      30.07S
$$

WIZ056-057-062-063-064-067-068-181200-
SOUTH CENTRAL WISCONSIN

CITY           SKY/WX    TMP DP  RH WIND       PRES   REMARKS
BARABOO/DELLS  FOG       50  49  95 NE7       30.11R VSB 3/4
LONE ROCK      CLOUDY    52  46  82 CALM      30.10R FOG
WATERTOWN      CLOUDY    49  49 100 NE8       30.11R
MADISON        CLOUDY    51  50  96 NE7       30.11R FOG
MIDDLETON      CLOUDY    52  52  99 E5        30.10S VSB 1/2
MONROE         PTCLDY    46  45  93 NE7       30.08R FOG
JANESVILLE     CLEAR     48  46  93 E3        30.09R
$$

WIZ051-052-058>065-066-070>072-181200-
SOUTHEAST WISCONSIN

CITY           SKY/WX    TMP DP  RH WIND       PRES   REMARKS
MILWAUKEE      CLOUDY    52  48  86 N10       30.11R
WAUKESHA       CLOUDY    48  46  93 NE12      30.12S
MILWAUKEE/TIMM CLOUDY    50  45  81 N7        30.12R
RACINE         CLOUDY    54  51  90 N12       30.11R
BURLINGTON     CLOUDY    49  49 100 NE7       30.10R FOG
KENOSHA        MOCLDY    52  51  97 N6        30.10R
FOND DU LAC    CLOUDY    47  43  86 E12       30.14R
SHEBOYGAN      CLOUDY    48  43  82 N8        30.14R
WEST BEND      CLOUDY    46  43  87 NE7       30.12R
JUNEAU         CLOUDY    48  47  94 NE8       30.12S
$$

LSZ147-162-181200-
LAKE SUPERIOR

STATION/POSITION TIME  TEMP    WIND        PRES    WAVE
                       AIR SEA DIR/SP/G            HT/PER
                 (UTC) (F)     (DEG/KT/KT) (MB)    (FT/S)
W MID LAKE BUOY  0950   44 47  110/ 10/ 12 1022.5R   2/ 5
DEVILS ISLAND    1000   44     100/ 15/ 17 1022.5S
PORT WING        1000   44      70/  7/ 11 1021.7R
SAXON HARBOR     1000   40        CALM     1022.0
$$

LMZ867-665-643>646-181200-
LAKE MICHIGAN

STATION/POSITION TIME  TEMP    WIND        PRES    WAVE
                       AIR SEA DIR/SP/G            HT/PER
                 (UTC) (F)     (DEG/KT/KT) (MB)    (FT/S)
N MID LAKE BUOY  0950   48 57   30/ 12/ 17 1020.7R   2/ 5
NORTHPORT PIER   1000   45      20/  9/ 13 1021.3R
KEWAUNEE LAKESHO 1000   46     360/  8/ 12 1019.7R
SHEBOYGAN LAKESH 1000   49 48   10/ 17/ 18 1020.5R
PORT WASHINGTON  1040   51     350/  5/ 10 1020.7R
ATWATER BUOY     1000   54     360/ 17/ 19 1020.0R
MILWAUKEE LAKESH 1000   53     340/ 13/ 19   N/A
S MID LAKE BUOY  0950   62 65  280/  6/  8 1018.4R   0
KENOSHA   LAKESH 1000   55     350/  8/ 10 1018.6R
$$

TC  - TEMPERATURE IN CELSIUS
VSB - VISIBILITY IN STATUTE MILES
WCI - WIND CHILL INDEX
HX  - HEAT INDEX



USA.gov is the U.S. government's official web portal to all federal, state and local government web resources and services.